Location: Cella
(44.7333°N, 10.5667°E)
Time: 10:59:40
(UTC+00:00)

Cosmos 968 Rocket - Pass Details

Date: 03 March 2021
Orbit: 740 x 771 km, 74.0° (Epoch: 17 April)

Event Time Altitude Azimuth Distance (km) Brightness Sun altitude
Rises 17:48:58 0° 338° (NNW) 3,249 7.0 -8.0°
Reaches altitude 10° 17:51:21 10° 339° (NNW) 2,321 6.3 -8.5°
Maximum altitude 17:56:38 89° 58° (ENE) 778 3.5 -9.4°
Drops below altitude 10° 18:01:54 10° 160° (SSE) 2,308 5.8 -10.3°
Sets 18:04:16 0° 161° (SSE) 3,229 6.5 -10.7°
